This is the latest recevied weather packets stored in our database for station/object KB1RMA-4. If no packets are shown the sender has not sent any weather packets the latest 10 day(s).
| Time | Temp. | Humidity | Pressure | Rain* | Wind** | Luminosity | Snow |
|---|---|---|---|---|---|---|---|
| 1787508150 | 18.89° C | 93% | 1010.3 hPa | 18.03 mm | - | 88 W/m² | - |
| 1787507846 | 19.44° C | 93% | 1010.9 hPa | 20.32 mm | - | 74 W/m² | - |
| 1787507541 | 19.44° C | 92% | 1010.8 hPa | 16.26 mm | - | 66 W/m² | - |
| 1787507237 | 19.44° C | 92% | 1011.2 hPa | 11.43 mm | - | 57 W/m² | - |
| 1787506933 | 19.44° C | 91% | 1011.5 hPa | 4.83 mm | - | 33 W/m² | - |
| 1787506629 | 19.44° C | 90% | 1011.6 hPa | 0 mm | - | 33 W/m² | - |
| 1787506325 | 19.44° C | 90% | 1011.5 hPa | 1.78 mm | - | 33 W/m² | - |
| 1787506020 | 20° C | 89% | 1011.3 hPa | 1.78 mm | - | 49 W/m² | - |
| 1787505715 | 20° C | 88% | 1011.4 hPa | 0 mm | - | 35 W/m² | - |
| 1787505409 | 20° C | 88% | 1011.4 hPa | 0 mm | - | 42 W/m² | - |
| 1787505104 | 20° C | 88% | 1011.1 hPa | 0 mm | - | 63 W/m² | - |
| 1787504799 | 20° C | 88% | 1011 hPa | 0 mm | - | 65 W/m² | - |
| 1787504496 | 20.56° C | 87% | 1011.1 hPa | 0 mm | - | 65 W/m² | - |
| 1787504191 | 20.56° C | 87% | 1011.3 hPa | 0 mm | - | 67 W/m² | - |
| 1787503887 | 20.56° C | 87% | 1011.1 hPa | 0 mm | - | 78 W/m² | - |
| 1787503587 | 20.56° C | 87% | 1011.1 hPa | 0 mm | - | 101 W/m² | - |
| 1787503284 | 20.56° C | 87% | 1011.2 hPa | 0 mm | - | 102 W/m² | - |
| 1787502979 | 20.56° C | 86% | 1011.3 hPa | 0 mm | - | 113 W/m² | - |
| 1787502674 | 20.56° C | 87% | 1011.2 hPa | 0 mm | - | 137 W/m² | - |
| 1787502374 | 20.56° C | 87% | 1011.4 hPa | 0 mm | - | 197 W/m² | - |
| 1787502069 | 20.56° C | 87% | 1011.4 hPa | 0 mm | - | 148 W/m² | - |
| 1787501765 | 20.56° C | 87% | 1011.4 hPa | 0 mm | - | 209 W/m² | - |
| 1787501461 | 20.56° C | 87% | 1011.4 hPa | 0 mm | - | 230 W/m² | - |
| 1787501157 | 20.56° C | 87% | 1011.7 hPa | 0 mm | - | 274 W/m² | - |
| 1787500854 | 20° C | 88% | 1011.4 hPa | 0 mm | - | 202 W/m² | - |
* Rain latest hour (hover to see other rain measurements)
** Current wind speed in m/s (hover to see current wind gust speed)